Torna al catalogo

STARLINK-5615

AttivoComunicazioniVLEO
NORAD 55425·PAYLOAD·🇺🇸 United States

Lanciato Jan 31, 2023 da Vandenberg Space Force Base

Loading…

Prossimi Passaggi (prossime 24 ore)

TLE

AggiornatoSource: CelesTrak SupGP

Epoca: Sep 14, 2026, 13:56 UTC

1 55425C 23014AL  26257.58104167  .00015031  00000+0  12598-2 0  2578
2 55425  70.0011 328.2323 0003365 274.5783 149.2470 14.98319117    10

Traccia STARLINK-5615 in tempo reale con AllMySat

Download on the App Store